| time (UTC) | temp F | wind direction | speed MPH | gust MPH | rain 1hr in | rain 24hr in | rain mn in | humidity % | barometer mb |
| 20260505225550 | 53 | 279 | 4.0 | 12.0 | 0.00 | 0.00 | 0.00 | 52 | 1008.7 |
| 20260505225050 | 53 | 40 | 5.0 | 17.0 | 0.00 | 0.00 | 0.00 | 52 | 1008.8 |
| 20260505224551 | 53 | 5 | 1.0 | 10.0 | 0.00 | 0.00 | 0.00 | 52 | 1008.3 |
| 20260505224050 | 53 | 97 | 3.0 | 13.0 | 0.00 | 0.00 | 0.00 | 52 | 1008.3 |
| 20260505223050 | 53 | 103 | 9.0 | 12.0 | 0.00 | 0.00 | 0.00 | 51 | 1008.6 |
| 20260505222550 | 53 | 315 | 2.0 | 10.0 | 0.00 | 0.00 | 0.00 | 52 | 1008.1 |
| 20260505222050 | 53 | 355 | 3.0 | 11.0 | 0.00 | 0.00 | 0.00 | 52 | 1007.8 |
| 20260505221550 | 53 | 22 | 6.0 | 11.0 | 0.00 | 0.00 | 0.00 | 52 | 1007.8 |
| 20260505221050 | 53 | 301 | 7.0 | 14.0 | 0.00 | 0.00 | 0.00 | 52 | 1007.6 |
| 20260505220050 | 53 | 315 | 12.0 | 14.0 | 0.00 | 0.00 | 0.00 | 52 | 1008.0 |
| 20260505215550 | 54 | 130 | 2.0 | 18.0 | 0.00 | 0.00 | 0.00 | 52 | 1008.0 |
| 20260505215050 | 54 | 44 | 11.0 | 18.0 | 0.00 | 0.00 | 0.00 | 53 | 1007.9 |
| 20260505214551 | 54 | 360 | 3.0 | 15.0 | 0.00 | 0.00 | 0.00 | 52 | 1007.8 |
| 20260505214051 | 54 | 23 | 2.0 | 13.0 | 0.00 | 0.00 | 0.00 | 52 | 1007.7 |
| 20260505213550 | 54 | 313 | 4.0 | 10.0 | 0.00 | 0.00 | 0.00 | 52 | 1008.0 |
| 20260505213051 | 54 | 344 | 1.0 | 14.0 | 0.00 | 0.00 | 0.00 | 53 | 1008.1 |
| 20260505212550 | 54 | 355 | 6.0 | 14.0 | 0.00 | 0.00 | 0.00 | 52 | 1008.0 |
| 20260505212050 | 54 | 340 | 4.0 | 13.0 | 0.00 | 0.00 | 0.00 | 52 | 1007.8 |
| 20260505211553 | 54 | 311 | 2.0 | 14.0 | 0.00 | 0.00 | 0.00 | 53 | 1007.8 |
| 20260505211050 | 54 | 61 | 8.0 | 11.0 | 0.00 | 0.00 | 0.00 | 53 | 1007.5 |
| 20260505210550 | 54 | 355 | 4.0 | 10.0 | 0.00 | 0.00 | 0.00 | 54 | 1007.5 |
| 20260505210050 | 54 | 5 | 2.0 | 13.0 | 0.00 | 0.00 | 0.00 | 54 | 1007.3 |
| 20260505205549 | 54 | 10 | 0.0 | 11.0 | 0.00 | 0.00 | 0.00 | 54 | 1007.4 |
| 20260505205050 | 54 | 150 | 1.0 | 11.0 | 0.00 | 0.00 | 0.00 | 54 | 1007.5 |
| 20260505204050 | 54 | 24 | 6.0 | 13.0 | 0.00 | 0.00 | 0.00 | 55 | 1007.7 |
| 20260505203550 | 54 | 318 | 5.0 | 13.0 | 0.00 | 0.00 | 0.00 | 55 | 1007.7 |
| 20260505203051 | 55 | 15 | 2.0 | 13.0 | 0.00 | 0.00 | 0.00 | 55 | 1007.7 |
| 20260505202550 | 55 | 28 | 9.0 | 12.0 | 0.00 | 0.00 | 0.00 | 55 | 1007.6 |
| 20260505202051 | 55 | 58 | 2.0 | 12.0 | 0.00 | 0.00 | 0.00 | 55 | 1007.5 |
| 20260505201550 | 55 | 342 | 4.0 | 14.0 | 0.00 | 0.00 | 0.00 | 55 | 1007.2 |
| 20260505200550 | 55 | 38 | 2.0 | 18.0 | 0.00 | 0.00 | 0.00 | 54 | 1007.3 |
| 20260505200051 | 55 | 336 | 3.0 | 18.0 | 0.00 | 0.00 | 0.00 | 54 | 1007.3 |
| 20260505195550 | 55 | 5 | 2.0 | 12.0 | 0.00 | 0.00 | 0.00 | 55 | 1007.3 |
| 20260505195050 | 55 | 351 | 12.0 | 12.0 | 0.00 | 0.00 | 0.00 | 55 | 1007.3 |
| 20260505194550 | 55 | 328 | 2.0 | 19.0 | 0.00 | 0.00 | 0.00 | 55 | 1007.4 |
| 20260505193051 | 55 | 62 | 5.0 | 14.0 | 0.00 | 0.00 | 0.00 | 55 | 1007.3 |
| 20260505192549 | 55 | 349 | 2.0 | 10.0 | 0.00 | 0.00 | 0.00 | 56 | 1007.2 |
| 20260505192050 | 55 | 51 | 2.0 | 12.0 | 0.00 | 0.00 | 0.00 | 56 | 1007.1 |
| 20260505191550 | 55 | 344 | 2.0 | 14.0 | 0.00 | 0.00 | 0.00 | 56 | 1006.8 |
| 20260505191049 | 55 | 52 | 7.0 | 14.0 | 0.00 | 0.00 | 0.00 | 56 | 1006.8 |
| 20260505190051 | 56 | 300 | 5.0 | 11.0 | 0.00 | 0.00 | 0.00 | 56 | 1006.8 |
| 20260505184550 | 56 | 58 | 9.0 | 15.0 | 0.00 | 0.00 | 0.00 | 56 | 1006.7 |
| 20260505184050 | 56 | 36 | 4.0 | 15.0 | 0.00 | 0.00 | 0.00 | 56 | 1006.5 |
| 20260505183050 | 56 | 346 | 4.0 | 15.0 | 0.00 | 0.00 | 0.00 | 57 | 1006.6 |
| 20260505182550 | 56 | 24 | 3.0 | 16.0 | 0.00 | 0.00 | 0.00 | 57 | 1006.6 |
| 20260505181550 | 56 | 28 | 2.0 | 13.0 | 0.00 | 0.00 | 0.00 | 58 | 1006.8 |
| 20260505181050 | 56 | 15 | 1.0 | 15.0 | 0.00 | 0.00 | 0.00 | 58 | 1006.6 |
| 20260505180549 | 56 | 38 | 3.0 | 15.0 | 0.00 | 0.00 | 0.00 | 58 | 1006.7 |
| 20260505175550 | 56 | 113 | 2.0 | 17.0 | 0.00 | 0.00 | 0.00 | 58 | 1006.1 |
| 20260505175050 | 56 | 33 | 1.0 | 13.0 | 0.00 | 0.00 | 0.00 | 58 | 1005.6 |
| 20260505174551 | 56 | 93 | 3.0 | 12.0 | 0.00 | 0.00 | 0.00 | 58 | 1005.7 |
| 20260505174049 | 56 | 65 | 2.0 | 14.0 | 0.00 | 0.00 | 0.00 | 58 | 1005.9 |
| 20260505172550 | 56 | 113 | 7.0 | 13.0 | 0.00 | 0.00 | 0.00 | 58 | 1005.8 |
| 20260505172050 | 57 | 323 | 2.0 | 16.0 | 0.00 | 0.00 | 0.00 | 58 | 1005.8 |
| 20260505171551 | 57 | 76 | 3.0 | 16.0 | 0.00 | 0.00 | 0.00 | 58 | 1005.9 |
| 20260505171049 | 57 | 50 | 2.0 | 14.0 | 0.00 | 0.00 | 0.00 | 58 | 1005.9 |
| 20260505170549 | 57 | 355 | 3.0 | 15.0 | 0.00 | 0.00 | 0.00 | 58 | 1005.5 |
| 20260505170050 | 58 | 76 | 1.0 | 16.0 | 0.00 | 0.00 | 0.00 | 58 | 1005.3 |
| 20260505165550 | 58 | 360 | 4.0 | 16.0 | 0.00 | 0.00 | 0.00 | 58 | 1005.2 |
| 20260505165051 | 58 | 334 | 5.0 | 16.0 | 0.00 | 0.00 | 0.00 | 58 | 1005.3 |
| 20260505164551 | 58 | 15 | 2.0 | 16.0 | 0.00 | 0.00 | 0.00 | 58 | 1005.0 |
| 20260505164050 | 59 | 312 | 2.0 | 15.0 | 0.00 | 0.00 | 0.00 | 58 | 1005.0 |
| 20260505163551 | 59 | 82 | 4.0 | 15.0 | 0.00 | 0.00 | 0.00 | 58 | 1005.0 |
| 20260505163050 | 59 | 27 | 1.0 | 14.0 | 0.00 | 0.00 | 0.00 | 58 | 1004.9 |
| 20260505162549 | 60 | 5 | 6.0 | 10.0 | 0.00 | 0.00 | 0.00 | 58 | 1004.9 |
| 20260505162050 | 60 | 25 | 3.0 | 10.0 | 0.00 | 0.00 | 0.00 | 58 | 1005.0 |
| 20260505161049 | 61 | 310 | 7.0 | 13.0 | 0.00 | 0.00 | 0.00 | 57 | 1004.6 |
| 20260505160550 | 61 | 29 | 4.0 | 11.0 | 0.00 | 0.00 | 0.00 | 57 | 1004.6 |
| 20260505153050 | 67 | 22 | 0.0 | 10.0 | 0.00 | 0.00 | 0.00 | 56 | 1003.7 |
| 20260505152049 | 69 | 346 | 4.0 | 9.0 | 0.00 | 0.00 | 0.00 | 54 | 1003.7 |
| 20260505150549 | 70 | 153 | 0.0 | 0.0 | 0.00 | 0.00 | 0.00 | 54 | 1003.3 |
| 20260505140550 | 68 | 150 | 8.0 | 9.0 | 0.00 | 0.00 | 0.00 | 56 | 1002.7 |
| 20260505124049 | 66 | 153 | 0.0 | 6.0 | 0.00 | 0.00 | 0.00 | 57 | 1003.3 |
| 20260505123549 | 66 | 153 | 0.0 | 5.0 | 0.00 | 0.00 | 0.00 | 57 | 1003.1 |
| 20260505123050 | 66 | 179 | 1.0 | 8.0 | 0.00 | 0.00 | 0.00 | 57 | 1003.1 |
| 20260505122551 | 66 | 128 | 1.0 | 8.0 | 0.00 | 0.00 | 0.00 | 57 | 1002.9 |
| 20260505122049 | 66 | 153 | 2.0 | 7.0 | 0.00 | 0.00 | 0.00 | 57 | 1002.8 |
| 20260505121551 | 66 | 165 | 0.0 | 4.0 | 0.00 | 0.00 | 0.00 | 57 | 1002.8 |
| 20260505121049 | 66 | 178 | 0.0 | 3.0 | 0.00 | 0.00 | 0.00 | 57 | 1002.8 |
| 20260505120549 | 66 | 121 | 0.0 | 3.0 | 0.00 | 0.00 | 0.00 | 57 | 1002.9 |
| 20260505120050 | 66 | 120 | 0.0 | 8.0 | 0.00 | 0.00 | 0.00 | 57 | 1002.8 |
| 20260505115549 | 66 | 119 | 0.0 | 8.0 | 0.00 | 0.00 | 0.00 | 57 | 1002.8 |
| 20260505115050 | 66 | 140 | 0.0 | 7.0 | 0.00 | 0.00 | 0.00 | 57 | 1002.7 |
| 20260505114551 | 66 | 89 | 0.0 | 3.0 | 0.00 | 0.00 | 0.00 | 57 | 1002.7 |
| 20260505114049 | 66 | 152 | 2.0 | 3.0 | 0.00 | 0.00 | 0.00 | 57 | 1002.9 |
| 20260505113549 | 66 | 142 | 0.0 | 3.0 | 0.00 | 0.00 | 0.00 | 57 | 1002.7 |
| 20260505113050 | 66 | 142 | 0.0 | 3.0 | 0.00 | 0.00 | 0.00 | 57 | 1002.8 |
| 20260505111551 | 66 | 18 | 0.0 | 2.0 | 0.00 | 0.00 | 0.00 | 57 | 1002.5 |
| 20260505111049 | 66 | 18 | 0.0 | 2.0 | 0.00 | 0.00 | 0.00 | 57 | 1002.3 |
| 20260505110549 | 66 | 19 | 0.0 | 4.0 | 0.00 | 0.00 | 0.00 | 57 | 1002.2 |
| 20260505101550 | 66 | 139 | 2.0 | 4.0 | 0.00 | 0.00 | 0.00 | 57 | 1001.6 |
| 20260505101049 | 66 | 161 | 4.0 | 6.0 | 0.00 | 0.00 | 0.00 | 57 | 1001.5 |
| 20260505100549 | 66 | 157 | 0.0 | 6.0 | 0.00 | 0.00 | 0.00 | 58 | 1001.5 |
| 20260505100050 | 66 | 158 | 0.0 | 2.0 | 0.00 | 0.00 | 0.00 | 58 | 1001.5 |
| 20260505095049 | 66 | 167 | 0.0 | 3.0 | 0.00 | 0.00 | 0.00 | 58 | 1001.3 |
| 20260505094550 | 66 | 150 | 1.0 | 5.0 | 0.00 | 0.00 | 0.00 | 58 | 1001.4 |
| 20260505094050 | 66 | 154 | 0.0 | 5.0 | 0.00 | 0.00 | 0.00 | 58 | 1001.5 |
| 20260505093549 | 66 | 141 | 2.0 | 4.0 | 0.00 | 0.00 | 0.00 | 58 | 1001.4 |
| 20260505093050 | 66 | 140 | 0.0 | 4.0 | 0.00 | 0.00 | 0.00 | 58 | 1001.5 |
| 20260505092550 | 66 | 139 | 1.0 | 4.0 | 0.00 | 0.00 | 0.00 | 58 | 1001.5 |
| 20260505091551 | 66 | 148 | 0.0 | 5.0 | 0.00 | 0.00 | 0.00 | 58 | 1001.5 |
| 20260505091049 | 66 | 169 | 2.0 | 4.0 | 0.00 | 0.00 | 0.00 | 58 | 1001.5 |
| 20260505090549 | 67 | 180 | 2.0 | 5.0 | 0.00 | 0.00 | 0.00 | 57 | 1001.6 |
| 20260505090050 | 67 | 216 | 0.0 | 3.0 | 0.00 | 0.00 | 0.00 | 57 | 1001.7 |
| 20260505085549 | 67 | 168 | 1.0 | 2.0 | 0.00 | 0.00 | 0.00 | 57 | 1001.8 |
| 20260505085049 | 67 | 157 | 0.0 | 5.0 | 0.00 | 0.00 | 0.00 | 57 | 1001.7 |
| 20260505084550 | 67 | 163 | 2.0 | 5.0 | 0.00 | 0.00 | 0.00 | 56 | 1001.7 |
| 20260505084049 | 68 | 162 | 4.0 | 4.0 | 0.00 | 0.00 | 0.00 | 56 | 1001.6 |
| 20260505083550 | 68 | 175 | 3.0 | 4.0 | 0.00 | 0.00 | 0.00 | 56 | 1001.6 |
| 20260505083050 | 68 | 139 | 0.0 | 4.0 | 0.00 | 0.00 | 0.00 | 56 | 1001.7 |
| 20260505082550 | 68 | 162 | 0.0 | 6.0 | 0.00 | 0.00 | 0.00 | 56 | 1001.9 |
| 20260505082051 | 68 | 167 | 0.0 | 6.0 | 0.00 | 0.00 | 0.00 | 56 | 1001.8 |
| 20260505081549 | 68 | 173 | 1.0 | 3.0 | 0.00 | 0.00 | 0.00 | 56 | 1001.8 |
| 20260505080549 | 68 | 190 | 1.0 | 2.0 | 0.00 | 0.00 | 0.00 | 56 | 1001.8 |
| 20260505080050 | 68 | 190 | 0.0 | 3.0 | 0.00 | 0.00 | 0.00 | 56 | 1001.7 |
| 20260505075549 | 68 | 188 | 0.0 | 3.0 | 0.00 | 0.00 | 0.00 | 55 | 1001.9 |
| 20260505075049 | 68 | 126 | 0.0 | 2.0 | 0.00 | 0.00 | 0.00 | 55 | 1002.0 |
| 20260505074549 | 68 | 125 | 0.0 | 2.0 | 0.00 | 0.00 | 0.00 | 55 | 1002.2 |
| 20260505074049 | 68 | 119 | 0.0 | 2.0 | 0.00 | 0.00 | 0.00 | 55 | 1002.4 |
| 20260505073549 | 68 | 119 | 0.0 | 3.0 | 0.00 | 0.00 | 0.00 | 55 | 1002.3 |
| 20260505073049 | 68 | 124 | 0.0 | 3.0 | 0.00 | 0.00 | 0.00 | 55 | 1002.5 |
| 20260505072550 | 68 | 128 | 0.0 | 1.0 | 0.00 | 0.00 | 0.00 | 55 | 1002.6 |
| 20260505072049 | 68 | 127 | 0.0 | 1.0 | 0.00 | 0.00 | 0.00 | 55 | 1002.5 |
| 20260505071049 | 68 | 131 | 0.0 | 1.0 | 0.00 | 0.00 | 0.00 | 55 | 1002.6 |
| 20260505070549 | 68 | 131 | 0.0 | 2.0 | 0.00 | 0.00 | 0.00 | 55 | 1002.6 |
| 20260505070049 | 68 | 131 | 2.0 | 2.0 | 0.00 | 0.00 | 0.00 | 55 | 1002.6 |
| 20260505065550 | 68 | 141 | 0.0 | 0.0 | 0.00 | 0.00 | 0.00 | 55 | 1002.7 |
| 20260505065050 | 68 | 141 | 0.0 | 1.0 | 0.00 | 0.00 | 0.00 | 56 | 1002.8 |
| 20260505064549 | 68 | 141 | 0.0 | 1.0 | 0.00 | 0.00 | 0.00 | 56 | 1003.1 |
| 20260505064049 | 68 | 141 | 0.0 | 0.0 | 0.00 | 0.00 | 0.00 | 55 | 1003.1 |
| 20260505063550 | 68 | 141 | 0.0 | 2.0 | 0.00 | 0.00 | 0.00 | 55 | 1002.9 |
| 20260505062549 | 68 | 165 | 0.0 | 3.0 | 0.00 | 0.00 | 0.00 | 55 | 1002.9 |
| 20260505062049 | 68 | 165 | 0.0 | 3.0 | 0.00 | 0.00 | 0.00 | 55 | 1002.8 |
| 20260505061550 | 68 | 165 | 0.0 | 2.0 | 0.00 | 0.00 | 0.00 | 55 | 1002.5 |
| 20260505061049 | 68 | 165 | 0.0 | 5.0 | 0.00 | 0.00 | 0.00 | 55 | 1002.2 |
| 20260505060550 | 68 | 165 | 0.0 | 9.0 | 0.00 | 0.00 | 0.00 | 55 | 1001.9 |
| 20260505055549 | 68 | 151 | 5.0 | 9.0 | 0.00 | 0.00 | 0.00 | 54 | 1001.8 |
| 20260505055049 | 69 | 159 | 5.0 | 9.0 | 0.00 | 0.00 | 0.00 | 54 | 1001.8 |
| 20260505054549 | 69 | 166 | 5.0 | 10.0 | 0.00 | 0.00 | 0.00 | 54 | 1001.9 |
| 20260505054050 | 69 | 175 | 3.0 | 11.0 | 0.00 | 0.00 | 0.00 | 54 | 1001.9 |
| 20260505053549 | 69 | 167 | 5.0 | 9.0 | 0.00 | 0.00 | 0.00 | 54 | 1002.0 |
| 20260505053050 | 69 | 161 | 6.0 | 9.0 | 0.00 | 0.00 | 0.00 | 54 | 1002.1 |
| 20260505052549 | 69 | 166 | 4.0 | 12.0 | 0.00 | 0.00 | 0.00 | 54 | 1002.2 |
| 20260505052049 | 69 | 171 | 6.0 | 9.0 | 0.00 | 0.00 | 0.00 | 54 | 1002.2 |
| 20260505051550 | 69 | 149 | 3.0 | 11.0 | 0.00 | 0.00 | 0.00 | 53 | 1002.3 |
| 20260505051049 | 69 | 160 | 5.0 | 13.0 | 0.00 | 0.00 | 0.00 | 53 | 1002.1 |
| 20260505050550 | 69 | 162 | 5.0 | 13.0 | 0.00 | 0.00 | 0.00 | 53 | 1002.2 |
| 20260505041550 | 68 | 153 | 7.0 | 11.0 | 0.00 | 0.00 | 0.00 | 53 | 1002.2 |
| 20260505041049 | 68 | 186 | 7.0 | 11.0 | 0.00 | 0.00 | 0.00 | 53 | 1002.5 |
| 20260505040549 | 69 | 157 | 2.0 | 14.0 | 0.00 | 0.00 | 0.00 | 53 | 1002.6 |
| 20260505040049 | 69 | 194 | 4.0 | 14.0 | 0.00 | 0.00 | 0.00 | 53 | 1002.5 |
| 20260505035549 | 69 | 182 | 10.0 | 10.0 | 0.00 | 0.00 | 0.00 | 52 | 1002.3 |
| 20260505035050 | 70 | 169 | 4.0 | 15.0 | 0.00 | 0.00 | 0.00 | 51 | 1002.5 |
| 20260505034549 | 70 | 167 | 14.0 | 14.0 | 0.00 | 0.00 | 0.00 | 51 | 1002.7 |
| 20260505034049 | 70 | 174 | 2.0 | 14.0 | 0.00 | 0.00 | 0.00 | 50 | 1002.7 |
| 20260505033549 | 70 | 173 | 6.0 | 14.0 | 0.00 | 0.00 | 0.00 | 50 | 1002.6 |
| 20260505033053 | 70 | 184 | 4.0 | 14.0 | 0.00 | 0.00 | 0.00 | 50 | 1002.9 |
| 20260505032550 | 70 | 165 | 5.0 | 11.0 | 0.00 | 0.00 | 0.00 | 50 | 1002.9 |
| 20260505032049 | 70 | 142 | 3.0 | 9.0 | 0.00 | 0.00 | 0.00 | 50 | 1003.1 |
| 20260505031549 | 70 | 152 | 3.0 | 9.0 | 0.00 | 0.00 | 0.00 | 50 | 1003.0 |
| 20260505030549 | 71 | 163 | 6.0 | 10.0 | 0.00 | 0.00 | 0.00 | 49 | 1003.1 |
| 20260505030049 | 71 | 153 | 3.0 | 8.0 | 0.00 | 0.00 | 0.00 | 49 | 1003.4 |
| 20260505025549 | 71 | 170 | 2.0 | 7.0 | 0.00 | 0.00 | 0.00 | 49 | 1003.4 |
| 20260505025049 | 71 | 157 | 2.0 | 10.0 | 0.00 | 0.00 | 0.00 | 49 | 1003.3 |
| 20260505024550 | 71 | 144 | 3.0 | 10.0 | 0.00 | 0.00 | 0.00 | 49 | 1003.3 |
| 20260505023549 | 71 | 169 | 1.0 | 8.0 | 0.00 | 0.00 | 0.00 | 48 | 1003.5 |
| 20260505023051 | 72 | 162 | 4.0 | 8.0 | 0.00 | 0.00 | 0.00 | 48 | 1003.4 |
| 20260505022549 | 72 | 180 | 4.0 | 10.0 | 0.00 | 0.00 | 0.00 | 47 | 1003.4 |
| 20260505022049 | 72 | 135 | 5.0 | 11.0 | 0.00 | 0.00 | 0.00 | 47 | 1003.3 |
| 20260505021550 | 72 | 170 | 2.0 | 12.0 | 0.00 | 0.00 | 0.00 | 47 | 1003.3 |
| 20260505021049 | 72 | 161 | 2.0 | 13.0 | 0.00 | 0.00 | 0.00 | 47 | 1003.2 |
| 20260505020549 | 72 | 169 | 4.0 | 9.0 | 0.00 | 0.00 | 0.00 | 47 | 1003.4 |
| 20260505020050 | 73 | 156 | 6.0 | 9.0 | 0.00 | 0.00 | 0.00 | 47 | 1003.4 |
| 20260505015550 | 73 | 165 | 7.0 | 11.0 | 0.00 | 0.00 | 0.00 | 47 | 1003.3 |
| 20260505015049 | 73 | 190 | 3.0 | 11.0 | 0.00 | 0.00 | 0.00 | 46 | 1003.3 |
| 20260505014049 | 73 | 173 | 7.0 | 13.0 | 0.00 | 0.00 | 0.00 | 46 | 1003.2 |
| 20260505013050 | 74 | 168 | 5.0 | 14.0 | 0.00 | 0.00 | 0.00 | 46 | 1003.3 |
| 20260505012549 | 74 | 222 | 2.0 | 14.0 | 0.00 | 0.00 | 0.00 | 46 | 1003.3 |
| 20260505012049 | 74 | 166 | 4.0 | 14.0 | 0.00 | 0.00 | 0.00 | 46 | 1003.3 |
| 20260505011549 | 74 | 181 | 2.0 | 9.0 | 0.00 | 0.00 | 0.00 | 46 | 1003.3 |
| 20260505010549 | 75 | 151 | 5.0 | 14.0 | 0.00 | 0.00 | 0.00 | 45 | 1003.1 |
| 20260505010050 | 75 | 167 | 8.0 | 14.0 | 0.00 | 0.00 | 0.00 | 45 | 1003.2 |
| 20260505005550 | 75 | 164 | 6.0 | 13.0 | 0.00 | 0.00 | 0.00 | 44 | 1003.1 |
| 20260505005049 | 75 | 172 | 11.0 | 13.0 | 0.00 | 0.00 | 0.00 | 44 | 1003.2 |
| 20260505004550 | 75 | 187 | 3.0 | 10.0 | 0.00 | 0.00 | 0.00 | 44 | 1003.0 |
| 20260505004049 | 75 | 234 | 1.0 | 12.0 | 0.00 | 0.00 | 0.00 | 44 | 1003.1 |
| 20260505003049 | 75 | 184 | 8.0 | 11.0 | 0.00 | 0.00 | 0.00 | 45 | 1003.2 |
| 20260505002549 | 76 | 155 | 2.0 | 12.0 | 0.00 | 0.00 | 0.00 | 45 | 1003.1 |
| 20260504235549 | 76 | 148 | 3.0 | 12.0 | 0.00 | 0.00 | 0.00 | 44 | 1003.4 |
| 20260504235049 | 77 | 178 | 2.0 | 13.0 | 0.00 | 0.00 | 0.00 | 43 | 1003.5 |
| 20260504234549 | 77 | 162 | 2.0 | 17.0 | 0.00 | 0.00 | 0.00 | 43 | 1003.5 |
| 20260504234049 | 77 | 169 | 6.0 | 17.0 | 0.00 | 0.00 | 0.00 | 43 | 1003.4 |
| 20260504233549 | 77 | 171 | 11.0 | 12.0 | 0.00 | 0.00 | 0.00 | 43 | 1003.5 |
| 20260504233049 | 77 | 167 | 4.0 | 17.0 | 0.00 | 0.00 | 0.00 | 43 | 1003.5 |
| 20260504232549 | 77 | 163 | 10.0 | 18.0 | 0.00 | 0.00 | 0.00 | 43 | 1003.5 |
| 20260504232050 | 77 | 155 | 3.0 | 18.0 | 0.00 | 0.00 | 0.00 | 43 | 1003.4 |
| 20260504231549 | 77 | 171 | 11.0 | 14.0 | 0.00 | 0.00 | 0.00 | 43 | 1003.5 |
| 20260504231049 | 77 | 137 | 4.0 | 17.0 | 0.00 | 0.00 | 0.00 | 43 | 1003.6 |
| 20260504230550 | 77 | 191 | 9.0 | 14.0 | 0.00 | 0.00 | 0.00 | 43 | 1003.6 |